• Join FlightAware (Why Join?)
  • Login
  • US Flag 
12:56AM EDT


 

Airport Tracker/Info


-or-


 

Live Flight TrackerFlight Track Log ✈ N251NG ✈ 29-Apr-2013 ✈ KGRR - KDPA

Flight Track Log - Related Links

Times and Time Zones

All times are in EDT time to prevent confusion due to time zone crossing. See the N251NG flight status page for this flight to view local times or setup timezone preferences in your user account.

Time Position Orientation Groundspeed Altitude Reporting Facility
EDT Latitude Longitude Course Direction KTS MPH feet Rate Location/Type
06:14AM 42.8519 -85.6722 252° West 157 181 4,200  Level Chicago Center
06:15AM 42.8386 -85.7336 254° West 164 189 5,400 1,380 Climbing Chicago Center
06:16AM 42.8236 -85.7975 252° West 174 200 7,100 1,500 Climbing Chicago Center
06:17AM 42.8089 -85.8617 253° West 176 203 8,500 1,380 Climbing Chicago Center
06:18AM 42.7630 -85.9777 246° West  Level FlightAware Approximate
06:18AM 42.7931 -85.9281 252° West 183 211 10,000  Level Chicago Center
06:19AM 42.7772 -85.9939 252° West 182 209 11,300 960 Climbing Chicago Center
06:20AM 42.7614 -86.0631 253° West 188 216 12,000 300 Climbing Chicago Center
06:21AM 42.7411 -86.1456 252° West 216 249 12,000  Level Chicago Center
06:22AM 42.7206 -86.2350 253° West 239 275 12,000  Level Chicago Center
06:23AM 42.6983 -86.3219 251° West 244 281 12,100  Climbing Chicago Center
06:24AM 42.6781 -86.4097 253° West 243 280 12,000 -60 Descending Chicago Center
06:25AM 42.6567 -86.4975 252° West 246 283 12,000  Level Chicago Center
06:26AM 42.6361 -86.5853 252° West 245 282 12,000 -300 Level Chicago Center
06:27AM 42.6094 -86.6897 251° West 244 281 11,400 -900 Descending Chicago Center
06:28AM 42.5878 -86.7758 251° West 242 278 10,200 -1,260 Descending Chicago Center
06:29AM 42.5681 -86.8622 253° West 239 275 8,900 -1,260 Descending Chicago Center
06:30AM 42.5464 -86.9500 252° West 244 281 7,700 -1,200 Descending Chicago Center
06:31AM 42.5267 -87.0306 252° West 232 267 6,600 -1,080 Descending Chicago Center
06:32AM 42.5058 -87.1097 250° West 225 259 5,600 -1,080 Descending Chicago Center
06:33AM 42.4864 -87.1872 251° West 220 253 4,500 -900 Descending Chicago Center
06:34AM 42.4683 -87.2650 253° West 218 251 3,900 -300 Descending Chicago Center
06:35AM 42.4469 -87.3428 250° West 218 251 3,900  Level Chicago Center
06:36AM 42.4306 -87.4278 255° West 224 258 3,900  Level Chicago Center
06:37AM 42.4139 -87.5078 254° West 222 255 3,900  Level Chicago Center
06:38AM 42.3978 -87.5931 256° West 230 265 3,900  Level Chicago Center
06:39AM 42.3828 -87.6761 256° West 228 262 3,900  Level Chicago Center
06:40AM 42.3661 -87.7597 255° West 229 264 4,000  Climbing Chicago Center
06:41AM 42.3478 -87.8433 254° West 232 267 3,900 -60 Descending Chicago Center
06:42AM 42.3311 -87.9261 255° West 231 266 3,900 -180 Level Chicago Center
06:43AM 42.3042 -87.9872 239° Southwest 235 270 3,600 -540 Descending Chicago Center
06:44AM 42.2414 -88.0422 213° Southwest 227 261 2,900 -360 Descending Chicago Center
06:45AM 42.1953 -88.0819 213° Southwest 209 241 2,900  Level Chicago Center
06:46AM 42.1497 -88.1192 211° Southwest 197 227 2,900  Level Chicago Center
06:47AM 42.1047 -88.1528 209° Southwest 190 219 2,900  Level Chicago Center
06:48AM 42.0589 -88.1869 209° Southwest 190 219 2,900 -300 Level Chicago Center
06:49AM 42.0117 -88.2139 203° Southwest 188 216 2,400 -600 Descending Chicago Center
06:50AM 41.9775 -88.2236 192° South 154 177 1,800 -600 Descending Chicago Center
06:51AM 41.9497 -88.2353 197° South 121 139 1,300 -420 Descending Chicago Center
06:52AM 41.9206 -88.2447 194° South 109 125 1,000 -300 Descending Chicago Center
06:54AM 41.9071 -88.2480 217° Southwest  Level Estimated
07:01AM 41.9071 -88.2480 217° Southwest  Level Estimated